Regional Weather Roundup
Issued by NWS

Home | Current Version | Previous Version | Graphics & Text | Print | Product List | Glossary On
Versions: 1 2 3 4 5 6 7 8 9 10 11 12 13 14 15 16 17 18 19 20 21 22 23 24 25 26 27 28 29 30 31 32 33 34 35 36 37 38 39 40 41 42 43 44 45 46 47 48 49 50
000
ASUS43 KIND 280259
RWRIN

WEATHER ROUNDUP FOR INDIANA
NATIONAL WEATHER SERVICE INDIANAPOLIS IN
1100 PM EDT FRI MAR 27 2015

NOTE: "FAIR" INDICATES FEW OR NO CLOUDS BELOW 12,000 FEET WITH NO
SIGNIFICANT WEATHER AND/OR OBSTRUCTIONS TO VISIBILITY.

* - STATION DOES NOT REPORT WEATHER SUCH AS PRECIPITATION OR FOG.

+ - STATION NOT QUALITY CONTROLLED BY THE NATIONAL WEATHER SERVICE.
    USE DATA WITH CAUTION...ESPECIALLY DEWPOINT AND RELATIVE
    HUMIDITY OBSERVATIONS.

INZ001>003-010>013-019-020-280400-
NORTHWEST INDIANA

CITY           SKY/WX    TMP DP  RH WIND       PRES   REMARKS
GARY /AIRPORT/ CLEAR     27   5  39 N16       30.21S WCI  14

$$

LMZ046-743>745-280400-
SOUTHERN LAKE MICHIGAN

STATION/POSITION TIME  TEMP WIND        PRES
                       AIR  DIR/SP/G
                 (UTC) (F)  (DEG/KT/KT) (MB)
BURNS HARBOR     0200   26   10/ 20/ 25 1023.0R
MICHIGAN CITY    0200   24  340/ 23/ 26   N/A

$$

INZ004-005-014>016-021>024-280400-
NORTH CENTRAL INDIANA

CITY           SKY/WX    TMP DP  RH WIND       PRES   REMARKS
GOSHEN         CLEAR     20  11  68 NW9       30.15R WCI   9
SOUTH BEND     CLEAR     20  12  71 N7        30.17R WCI  11

$$

INZ006>009-017-018-025>027-280400-
NORTHEAST INDIANA

CITY           SKY/WX    TMP DP  RH WIND       PRES   REMARKS
ANGOLA *+      CLEAR     21  10  63 NW7       30.11R WCI  13
FORT WAYNE     CLEAR     22  12  65 NW13      30.14R WCI  10

$$

INZ028-029-035-036-043>045-051>053-280400-
WEST CENTRAL INDIANA

CITY           SKY/WX    TMP DP  RH WIND       PRES   REMARKS
CRAWFORDSVL +  CLEAR     22   9  58 N9        30.17R WCI  11
GREENCASTLE +  CLEAR     25  10  54 N7        30.16S WCI  17
LAFAYETTE      CLEAR     22  13  68 N8        30.19R WCI  12
TERRE HAUTE    CLEAR     27  17  66 NE6       30.18R WCI  20

$$

INZ030>032-037>040-046>048-054>057-064-065-280400-
CENTRAL INDIANA

CITY           SKY/WX    TMP DP  RH WIND       PRES   REMARKS
GREENWOOD *+   MOCLDY    25  10  54 NW14      30.15R WCI  13
INDIANAPOLIS   PTCLDY    24   8  50 N15       30.14S WCI  11
-EAGLE CREEK   CLEAR     24  11  57 N13       30.15R WCI  12
KOKOMO *+        N/A     21  12  68 N14       30.15S WCI   8
MT COMFORT *+  MOCLDY    25   9  50 N13       30.14S WCI  13
SHELBYVILLE    CLOUDY    28  15  58 N16       30.14R WCI  16

$$

INZ033-034-041-042-049-050-058-059-280400-
EAST CENTRAL INDIANA

CITY           SKY/WX    TMP DP  RH WIND       PRES   REMARKS
MUNCIE         CLEAR     23  13  65 N15       30.13R WCI  10

$$

INZ060-061-067>069-081>083-085>088-280400-
SOUTHWEST INDIANA

CITY           SKY/WX    TMP DP  RH WIND       PRES   REMARKS
EVANSVILLE     CLEAR     34  21  59 N6        30.18R WCI  29
HUNTINGBURG *+ PTCLDY    30  18  59 N8        30.16R WCI  23

$$

INZ062-063-066-070>080-084-089>092-280400-
SOUTH CENTRAL AND SOUTHEAST INDIANA

CITY           SKY/WX    TMP DP  RH WIND       PRES   REMARKS
BLOOMINGTON    CLEAR     26  17  68 N9        30.15R WCI  17
SEYMOUR +      CLEAR     30  18  59 N10       30.15R WCI  21

$$



USA.gov is the U.S. government's official web portal to all federal, state and local government web resources and services.